| time (UTC) | temp F | wind direction | speed knots | gust knots | rain 1hr in | rain 24hr in | rain mn in | humidity % | barometer mb |
| 20260506013013 | 69 | 219 | 8.7 | 13.9 | 0.00 | 0.32 | 0.15 | 30 | 1012.3 |
| 20260506011525 | 70 | 292 | 8.7 | 14.8 | 0.00 | 0.32 | 0.15 | 31 | 1012.3 |
| 20260506010023 | 70 | 234 | 10.4 | 17.4 | 0.00 | 0.32 | 0.15 | 31 | 1012.1 |
| 20260506004509 | 71 | 257 | 10.4 | 18.2 | 0.00 | 0.32 | 0.15 | 29 | 1012.0 |
| 20260506003014 | 71 | 276 | 9.6 | 20.0 | 0.00 | 0.32 | 0.15 | 30 | 1011.9 |
| 20260506001519 | 72 | 257 | 9.6 | 20.9 | 0.00 | 0.32 | 0.15 | 29 | 1011.7 |
| 20260506000022 | 73 | 236 | 11.3 | 17.4 | 0.00 | 0.32 | 0.15 | 30 | 1011.6 |
| 20260505234506 | 73 | 286 | 8.7 | 15.6 | 0.00 | 0.32 | 0.15 | 29 | 1011.5 |
| 20260505233017 | 73 | 244 | 9.6 | 16.5 | 0.00 | 0.32 | 0.15 | 29 | 1011.4 |
| 20260505231520 | 74 | 258 | 7.8 | 16.5 | 0.00 | 0.32 | 0.15 | 30 | 1011.5 |
| 20260505230018 | 73 | 250 | 7.8 | 16.5 | 0.00 | 0.32 | 0.15 | 29 | 1011.5 |
| 20260505224530 | 73 | 314 | 7.0 | 16.5 | 0.00 | 0.32 | 0.15 | 31 | 1011.7 |
| 20260505223011 | 72 | 224 | 7.0 | 16.5 | 0.00 | 0.32 | 0.15 | 33 | 1011.9 |
| 20260505221514 | 72 | 236 | 13.0 | 17.4 | 0.00 | 0.32 | 0.15 | 33 | 1011.9 |
| 20260505220008 | 72 | 203 | 7.0 | 17.4 | 0.00 | 0.32 | 0.15 | 34 | 1012.0 |
| 20260505214504 | 71 | 211 | 7.0 | 14.8 | 0.00 | 0.32 | 0.15 | 34 | 1012.3 |
| 20260505213002 | 72 | 260 | 9.6 | 16.5 | 0.00 | 0.32 | 0.15 | 37 | 1012.3 |
| 20260505211503 | 72 | 278 | 7.0 | 15.6 | 0.00 | 0.32 | 0.15 | 41 | 1012.4 |
| 20260505210004 | 70 | 232 | 7.8 | 13.9 | 0.00 | 0.32 | 0.15 | 46 | 1012.7 |
| 20260505204503 | 70 | 307 | 3.5 | 14.8 | 0.00 | 0.32 | 0.15 | 49 | 1012.9 |
| 20260505203005 | 71 | 307 | 9.6 | 18.2 | 0.00 | 0.32 | 0.15 | 47 | 1012.8 |
| 20260505201506 | 71 | 240 | 9.6 | 16.5 | 0.00 | 0.32 | 0.15 | 41 | 1012.9 |
| 20260505200012 | 70 | 231 | 10.4 | 13.9 | 0.00 | 0.32 | 0.15 | 48 | 1013.1 |
| 20260505194504 | 69 | 241 | 5.2 | 14.8 | 0.00 | 0.32 | 0.15 | 54 | 1013.2 |
| 20260505193009 | 68 | 242 | 5.2 | 12.2 | 0.00 | 0.32 | 0.15 | 55 | 1013.3 |
| 20260505191508 | 67 | 267 | 5.2 | 11.3 | 0.00 | 0.32 | 0.15 | 58 | 1013.6 |
| 20260505190006 | 67 | 188 | 8.7 | 12.2 | 0.00 | 0.32 | 0.15 | 55 | 1013.7 |
| 20260505184513 | 67 | 209 | 1.7 | 5.2 | 0.00 | 0.32 | 0.15 | 59 | 1013.9 |
| 20260505183006 | 66 | 235 | 3.5 | 7.0 | 0.00 | 0.32 | 0.15 | 61 | 1014.1 |
| 20260505181509 | 64 | 270 | 0.0 | 4.3 | 0.00 | 0.32 | 0.15 | 62 | 1014.2 |
| 20260505180011 | 64 | 238 | 3.5 | 7.8 | 0.00 | 0.32 | 0.15 | 65 | 1014.5 |
| 20260505174511 | 63 | 230 | 5.2 | 8.7 | 0.00 | 0.32 | 0.15 | 65 | 1014.6 |
| 20260505173019 | 63 | 283 | 3.5 | 7.8 | 0.00 | 0.32 | 0.15 | 67 | 1014.6 |
| 20260505171505 | 63 | 247 | 0.9 | 7.0 | 0.00 | 0.32 | 0.15 | 67 | 1014.5 |
| 20260505170012 | 62 | 286 | 0.9 | 5.2 | 0.00 | 0.32 | 0.15 | 67 | 1014.5 |
| 20260505164509 | 62 | 282 | 2.6 | 7.0 | 0.00 | 0.32 | 0.15 | 69 | 1014.5 |
| 20260505163014 | 62 | 230 | 3.5 | 6.1 | 0.00 | 0.32 | 0.15 | 71 | 1014.4 |
| 20260505161513 | 61 | 243 | 2.6 | 7.0 | 0.00 | 0.32 | 0.15 | 73 | 1014.6 |
| 20260505153012 | 60 | 223 | 2.6 | 5.2 | 0.00 | 0.32 | 0.15 | 85 | 1014.3 |
| 20260505151514 | 59 | 205 | 4.3 | 6.1 | 0.00 | 0.32 | 0.15 | 85 | 1014.3 |
| 20260505124509 | 57 | 326 | 0.9 | 1.7 | 0.00 | 0.32 | 0.15 | 90 | 1013.3 |
| 20260505123012 | 57 | 271 | 0.0 | 1.7 | 0.01 | 0.32 | 0.15 | 90 | 1013.0 |
| 20260505121519 | 57 | 242 | 0.0 | 1.7 | 0.01 | 0.32 | 0.15 | 90 | 1013.1 |
| 20260505120005 | 57 | 233 | 0.9 | 1.7 | 0.01 | 0.32 | 0.15 | 90 | 1012.9 |
| 20260505114506 | 57 | 156 | 0.0 | 3.5 | 0.02 | 0.32 | 0.15 | 90 | 1012.4 |
| 20260505113012 | 57 | 216 | 1.7 | 4.3 | 0.01 | 0.31 | 0.14 | 90 | 1012.8 |
| 20260505111514 | 57 | 188 | 1.7 | 4.3 | 0.03 | 0.31 | 0.14 | 89 | 1012.8 |
| 20260505101521 | 58 | 204 | 11.3 | 19.1 | 0.02 | 0.28 | 0.11 | 84 | 1013.8 |
| 20260505100018 | 58 | 219 | 9.6 | 15.6 | 0.01 | 0.27 | 0.10 | 85 | 1013.6 |
| 20260505094529 | 59 | 203 | 7.8 | 11.3 | 0.02 | 0.27 | 0.10 | 80 | 1013.4 |
| 20260505093024 | 59 | 170 | 8.7 | 12.2 | 0.03 | 0.27 | 0.10 | 80 | 1013.7 |
| 20260505091509 | 58 | 238 | 4.3 | 6.1 | 0.03 | 0.26 | 0.09 | 82 | 1014.1 |
| 20260505090013 | 58 | 265 | 0.9 | 7.0 | 0.04 | 0.26 | 0.09 | 82 | 1013.9 |
| 20260505084532 | 58 | 160 | 5.2 | 13.9 | 0.04 | 0.25 | 0.08 | 81 | 1014.6 |
| 20260505083027 | 58 | 174 | 10.4 | 16.5 | 0.05 | 0.24 | 0.07 | 82 | 1015.0 |
| 20260505081527 | 58 | 165 | 7.0 | 13.9 | 0.06 | 0.23 | 0.06 | 81 | 1015.4 |
| 20260505080011 | 59 | 180 | 8.7 | 14.8 | 0.05 | 0.22 | 0.05 | 81 | 1016.1 |
| 20260505074515 | 59 | 171 | 9.6 | 13.0 | 0.06 | 0.21 | 0.04 | 82 | 1016.1 |
| 20260505073034 | 59 | 209 | 3.5 | 6.1 | 0.05 | 0.19 | 0.02 | 84 | 1016.6 |
| 20260505071525 | 59 | 219 | 1.7 | 4.3 | 0.05 | 0.17 | 0.00 | 84 | 1016.6 |
| 20260505070036 | 59 | 190 | 1.7 | 4.3 | 0.05 | 0.17 | 0.00 | 83 | 1016.3 |
| 20260505064511 | 59 | 234 | 2.6 | 5.2 | 0.04 | 0.15 | 0.15 | 82 | 1016.4 |
| 20260505063022 | 59 | 272 | 0.9 | 5.2 | 0.04 | 0.14 | 0.14 | 82 | 1016.4 |
| 20260505061532 | 59 | 239 | 3.5 | 6.1 | 0.02 | 0.12 | 0.12 | 80 | 1016.5 |
| 20260505060026 | 59 | 235 | 4.3 | 7.0 | 0.02 | 0.12 | 0.12 | 79 | 1016.6 |
| 20260505054533 | 59 | 183 | 6.1 | 8.7 | 0.02 | 0.11 | 0.11 | 78 | 1016.2 |
| 20260505053020 | 59 | 195 | 6.1 | 9.6 | 0.02 | 0.10 | 0.10 | 79 | 1016.3 |
| 20260505051524 | 59 | 197 | 3.5 | 5.2 | 0.03 | 0.10 | 0.10 | 80 | 1016.1 |
| 20260505041532 | 59 | 233 | 4.3 | 8.7 | 0.03 | 0.07 | 0.07 | 73 | 1016.6 |
| 20260505040007 | 61 | 220 | 7.8 | 10.4 | 0.01 | 0.05 | 0.05 | 66 | 1016.4 |
| 20260505034515 | 61 | 302 | 6.1 | 10.4 | 0.01 | 0.05 | 0.05 | 66 | 1016.2 |
| 20260505033014 | 62 | 251 | 3.5 | 8.7 | 0.01 | 0.05 | 0.05 | 65 | 1015.3 |
| 20260505031533 | 62 | 70 | 0.9 | 9.6 | 0.00 | 0.04 | 0.04 | 61 | 1014.9 |
| 20260505030020 | 61 | 178 | 6.1 | 13.9 | 0.01 | 0.04 | 0.04 | 59 | 1015.4 |
| 20260505024507 | 60 | 144 | 6.1 | 13.9 | 0.02 | 0.04 | 0.04 | 57 | 1015.3 |
| 20260505023012 | 60 | 147 | 7.0 | 9.6 | 0.04 | 0.04 | 0.04 | 68 | 1015.5 |
| 20260505021516 | 60 | 149 | 4.3 | 7.0 | 0.04 | 0.04 | 0.04 | 65 | 1015.9 |
| 20260505020020 | 61 | 201 | 2.6 | 5.2 | 0.03 | 0.03 | 0.03 | 59 | 1016.4 |
| 20260505014531 | 63 | 197 | 0.9 | 2.6 | 0.02 | 0.02 | 0.02 | 56 | 1016.3 |